Погода в Айзкраукле

Латвия     56°35′50″N   25°15′14″E
темп.,
°C
ветер,
м/с
пор.,
м/с
влажн.,
%
обл.,
%
осадки,
мм/ч
давл.,
гПа
погр.,
м
5 марта, пт
пт523:00−2сз39650 0.0 1011508
02:00−2зсз597916 0.1 10121147
05:00−3сз597463 0.1 1012967
08:00−3ссз595364 0.1 10141119
11:00−1ссз58330 0.0 10151703
14:00+1сз47340 0.0 10162008
17:00−1з356997 0.2 1016664
20:00−3сз277398 0.6 1018306
6 марта, сб
сб623:00−3с3770100 0.3 1020758
02:00−5ссз266760 0.3 1022268
05:00−5зсз26670 0.0 1023231
08:00−5з37771 0.0 1024378
11:00−1з47542 0.0 10231201
14:00+2зюз610472 0.0 10201495
17:00+1зюз61351100 0.0 10161487
20:000зюз71757100 0.0 10131366
7 марта, вс
вс723:00−1зюз81591100 0.2 10081183
02:00+1з71497100 1.3 10051141
05:00−2сз71378100 1.6 10051463
08:00−3зсз3105967 1.6 10071464
11:00−1зсз7124469 0.1 10062304
14:000з7124984 0.6 10041968
17:00−2зсз81565100 0.6 10022110
20:00−4сз81565100 0.9 10041711
8 марта, пн
пн823:00−4сз61279100 0.1 10071305
02:00−5сз4873100 0.1 10081035
05:00−5ссз2580100 0.1 1009625
08:00−6ссз257963 0.1 1011518
11:00−4ссз566490 0.1 10131141
14:00−4с575395 0.1 10151225
17:00−5с5857100 0.0 10171193
20:00−7с496484 0.0 10201005
9 марта, вт
вт923:00−8ссв38660 0.0 1022583
02:00−9ссз25730 0.0 1024227
05:00−9сз23770 0.0 102594
08:00−8зсз127016 0.0 1026130
11:00−4з23500 0.0 1027593
14:00−1з34460 0.0 1027946
17:00−2зюз36500 0.0 1026852
20:00−4юз38608 0.0 1027283